Regional Weather Roundup
Issued by NWS

Home | Current Version | Previous Version | Text Only | Print | Product List | Glossary On
Versions: 1 2 3 4 5 6 7 8 9 10 11 12 13 14 15 16 17 18 19 20 21 22 23 24 25 26 27 28 29 30 31 32 33 34 35 36 37 38 39 40 41 42 43 44 45 46 47 48 49 50
000
ASUS44 KFWD 161603
RWRTX
NORTH TEXAS HOURLY WEATHER ROUNDUP
NATIONAL WEATHER SERVICE FORT WORTH TX
1100 AM CDT TUE SEP 16 2014

NOTE: "FAIR" INDICATES FEW OR NO CLOUDS BELOW 12,000 FEET WITH NO
SIGNIFICANT WEATHER AND/OR OBSTRUCTIONS TO VISIBILITY.

TXZ118-119-161700-
DALLAS/FORT WORTH METROPLEX

CITY           SKY/WX    TMP DP  RH WIND       PRES   REMARKS
DFW AIRPORT    PTSUNNY   83  70  64 VRB3      30.12S
DALLAS LOVE    PTSUNNY   83  71  67 VRB5      30.12F
FTW MEACHAM    PTSUNNY   83  70  64 CALM      30.12F
DAL-EXECUTIVE  PTSUNNY   84  70  62 VRB3      30.12F
FTW-ALLIANCE   PTSUNNY   84  69  60 CALM      30.12S
FTW-NAS-JRB    PTSUNNY   85  69  58 CALM      30.17S
FTW-SPINKS     MOSUNNY   81  70  69 CALM      30.15S
ARLINGTON      PTSUNNY   82  70  66 SE3       30.13S
GRAND PRAIRIE  SUNNY     82  70  65 MISG      30.14S
ADDISON        PTSUNNY   82  70  65 CALM      30.14S
MESQUITE       SUNNY     81  70  69 SE3       30.13S
LANCASTER      PTSUNNY   81  69  67 E3        30.13F
$$

TXZ091>094-102>105-117-120-121-131>134-161700-
NORTH CENTRAL TEXAS

CITY           SKY/WX    TMP DP  RH WIND       PRES   REMARKS
SHRMAN/DENISON PTSUNNY   80  70  70 CALM      30.15F
GAINESVILLE    PTSUNNY   81  69  67 SE3       30.16S
BOWIE          PTSUNNY   81  69  67 CALM      30.15S
BRIDGEPORT     PTSUNNY   81  66  60 CALM      30.16S
DECATUR        PTSUNNY   80  66  63 E5        30.15S
DENTON         PTSUNNY   83  68  60 S6        30.13S
MCKINNEY       PTSUNNY   81  70  69 CALM      30.13F
GREENVILLE       N/A     82  68  61 CALM      30.14S
ROCKWALL       PTSUNNY   82  72  71 CALM      30.12F
TERRELL        PTSUNNY   85  71  63 E5        30.13S HX  90
WAXAHACHIE     PTSUNNY   82  69  64 S3        30.14S
CLEBURNE       CLOUDY    81  73  78 CALM      30.15S
GRANBURY       CLOUDY    83  70  64 E5        30.14F
$$

TXZ083>090-098>101-113>116-127>130-139>142-154-155-161700-
WESTERN NORTH TEXAS

CITY           SKY/WX    TMP DP  RH WIND       PRES   REMARKS
WICHITA FALLS  CLOUDY    79  69  71 SE5       30.14S
WF-KICKAPOO    CLOUDY    81  67  62 SE3       30.15S
VERNON         PTSUNNY   81  67  61 S3        30.15S
ABILENE        PTSUNNY   82  67  60 W5        30.17S
ABILENE-DYESS  PTSUNNY   78  66  65 SW2       30.17R
BRECKENRIDGE   CLOUDY    81  67  61 CALM      30.15S HAZE
MINERAL WELLS    N/A     80  68  66 S3        30.13S
STEPHENVILLE   CLOUDY    80  70  72 CALM      30.17F
COMANCHE         N/A     80  71  73 E3        30.16S
BROWNWOOD      CLOUDY    77  68  73 CALM      30.16S
COLEMAN        CLOUDY    79  68  70 S3        30.18R
BRADY            N/A     79  72  78 E6        30.16S
$$

TXZ143>147-156>162-174-175-161700-
CENTRAL TEXAS

CITY           SKY/WX    TMP DP  RH WIND       PRES   REMARKS
WACO           PTSUNNY   80  72  76 SW3       30.12S
WACO-TSTC      SUNNY     81  73  78 CALM      30.12S
WACO-MCGREGOR  PTSUNNY   84  72  65 NE6       30.13F
HILLSBORO      PTSUNNY   84  71  64 NE5       30.13S
CORSICANA      CLOUDY    83  72  69 SE5       30.13R
MEXIA          MOSUNNY   82  74  78 E3        30.11S
HEARNE           N/A     84  75  72 CALM      30.09F HX  92
CAMERON        MOSUNNY   87  73  62 SE5       30.09F HX  94
TEMPLE         PTSUNNY   84  72  65 CALM      30.11S
KILLEEN        PTSUNNY   84  73  70 E3        30.12S HX  91
KILLEEN-SKYLRK PTSUNNY   82  70  65 CALM      30.11F
FORT HOOD      PTSUNNY   88  73  61 VRB5      30.11F HX  95
HAMILTON       PTSUNNY   85  70  62 E5        30.15F
LAMPASAS       PTSUNNY   78  73  85 E3        30.13F
$$

TXZ095>097-106>112-122>126-135>138-148>153-164>167-161700-
EAST TEXAS

CITY           SKY/WX    TMP DP  RH WIND       PRES   REMARKS
PARIS          PTSUNNY   79  66  65 CALM      30.15S
SULPHUR SPRNGS PTSUNNY   82  71  69 SE3       30.16S
MOUNT PLEASANT PTSUNNY   81  72  74 CALM      30.15S
MINEOLA        PTSUNNY   81  73  78 E5        30.14S
TYLER          PTSUNNY   81  71  71 E3        30.12F
LONGVIEW       PTSUNNY   84  70  62 NE7       30.12S
MARSHALL       PTSUNNY   82  71  70 NE3       30.14S
ATHENS         PTSUNNY   81  72  74 CALM      30.11S
PALESTINE      MOSUNNY   82  73  76 E5        30.12S
JACKSONVILLE   PTSUNNY   82  72  70 E5        30.14S
HENDERSON      PTSUNNY   80  71  72 CALM      30.13F
NACOGDOCHES    MOSUNNY   84  73  70 SE6       30.11S HX  91
LUFKIN         SUNNY     87  73  62 S3        30.10S HX  94
$$

SUPPLEMENTAL OBSERVATIONS (CENTRAL)

CITY           SKY/WX    TMP DP  RH WIND       PRES   REMARKS
$$

SUPPLEMENTAL OBSERVATIONS (WEST)

CITY           SKY/WX    TMP DP  RH WIND       PRES   REMARKS
$$

SUPPLEMENTAL OBSERVATIONS (EAST)

CITY           SKY/WX    TMP DP  RH WIND       PRES   REMARKS
$$

SUPPLEMENTAL OBSERVATIONS ARE A COLLECTION OF AUTOMATED INSTRUMENTS
THAT ARE MAINTAINED BY A VARIETY OF FEDERAL AND STATE AGENCIES.
CERTAIN ELEMENTS...SUCH AS HUMIDITY VALUES AND SUSTAINED WIND
SPEEDS...MAY BE APPROXIMATED.




USA.gov is the U.S. government's official web portal to all federal, state and local government web resources and services.